When you browse on this site, cookies collect data to enhance your experience and personalize the content and advertising you see.
Visit our Privacy Policy to learn more. By continuing to use the site, you agree to this use of cookies and data.
  • In Österreich
  • Länderverzeichnis
  • Für 7 Tage
  • Wassertemperatur
  • Wetterkarte
  • News
  • Widgets
  • user-avatar
    Anmelden

    Stündliche Wetter La Massana

    Heute, 1 April, Mittwoch

    Zeit Temperatur Niederschläge Wind Luftdruck Luftfeuchtigkeit
    00:00 +1°C° 0 mm 1 m/S 607 mmHg 97%
    01:00 +1°C° 0.1 mm 1 m/S 606 mmHg 97%
    02:00 +1°C° 0.1 mm 1 m/S 606 mmHg 96%
    03:00 +1°C° 0.1 mm 1 m/S 606 mmHg 96%
    04:00 +1°C° 0 mm 1 m/S 606 mmHg 96%
    05:00 0°C° 0 mm 1 m/S 606 mmHg 96%
    06:00 0°C° 0 mm 1 m/S 606 mmHg 95%
    07:00 +1°C° 0 mm 1 m/S 606 mmHg 94%
    08:00 +2°C° 0 mm 1 m/S 607 mmHg 92%
    09:00 +4°C° 0 mm 1 m/S 607 mmHg 91%
    10:00 +4°C° 0.1 mm 1 m/S 608 mmHg 90%
    11:00 +5°C° 0.1 mm 1 m/S 608 mmHg 88%
    12:00 +5°C° 0.1 mm 1 m/S 608 mmHg 87%
    13:00 +5°C° 0.3 mm 1 m/S 608 mmHg 88%
    14:00 +5°C° 0.3 mm 1 m/S 607 mmHg 88%
    15:00 +5°C° 0.3 mm 1 m/S 607 mmHg 89%
    16:00 +4°C° 0.3 mm 1 m/S 607 mmHg 91%
    17:00 +3°C° 0.3 mm 1 m/S 606 mmHg 94%
    18:00 +2°C° 0.3 mm 0 m/S 606 mmHg 96%
    19:00 +1°C° 0 mm 0 m/S 606 mmHg 96%
    20:00 +1°C° 0 mm 0 m/S 606 mmHg 96%
    21:00 +1°C° 0 mm 0 m/S 606 mmHg 96%
    22:00 +1°C° 0.2 mm 0 m/S 606 mmHg 96%
    23:00 0°C° 0.2 mm 0 m/S 606 mmHg 97%

    Morgen, 2 April, Donnerstag

    Zeit Temperatur Niederschläge Wind Luftdruck Luftfeuchtigkeit
    00:00 0°C° 0.2 mm 0 m/S 606 mmHg 97%
    01:00 0°C° 0.4 mm 0 m/S 605 mmHg 97%
    02:00 0°C° 0.4 mm 0 m/S 605 mmHg 98%
    03:00 +1°C° 0.4 mm 1 m/S 605 mmHg 98%
    04:00 +1°C° 0.1 mm 1 m/S 605 mmHg 98%
    05:00 +1°C° 0.1 mm 1 m/S 605 mmHg 98%
    06:00 +1°C° 0.1 mm 1 m/S 605 mmHg 98%
    07:00 +2°C° 0.1 mm 1 m/S 605 mmHg 95%
    08:00 +2°C° 0.1 mm 1 m/S 605 mmHg 93%
    09:00 +3°C° 0.1 mm 1 m/S 606 mmHg 90%
    10:00 +3°C° 0.1 mm 1 m/S 606 mmHg 91%
    11:00 +3°C° 0.1 mm 1 m/S 606 mmHg 91%
    12:00 +3°C° 0.1 mm 1 m/S 606 mmHg 92%
    13:00 +3°C° 0.2 mm 1 m/S 606 mmHg 92%
    14:00 +2°C° 0.2 mm 2 m/S 606 mmHg 93%
    15:00 +2°C° 0.2 mm 2 m/S 605 mmHg 93%
    16:00 +1°C° 0.2 mm 2 m/S 605 mmHg 94%
    17:00 +2°C° 0.2 mm 1 m/S 605 mmHg 95%
    18:00 +1°C° 0.2 mm 1 m/S 605 mmHg 96%
    19:00 +1°C° 0.1 mm 1 m/S 605 mmHg 95%
    20:00 0°C° 0.1 mm 1 m/S 605 mmHg 95%
    21:00 -2°C° 0.1 mm 2 m/S 605 mmHg 95%
    22:00 -3°C° 0 mm 2 m/S 605 mmHg 94%
    23:00 -1°C° 0 mm 1 m/S 605 mmHg 94%

    übermorgen, 3 April, Freitag

    Zeit Temperatur Niederschläge Wind Luftdruck Luftfeuchtigkeit
    00:00 -1°C° 0 mm 1 m/S 605 mmHg 93%
    01:00 -4°C° 0 mm 2 m/S 605 mmHg 93%
    02:00 -4°C° 0 mm 2 m/S 604 mmHg 93%
    03:00 -4°C° 0 mm 2 m/S 604 mmHg 93%
    04:00 -4°C° 0 mm 2 m/S 604 mmHg 93%
    05:00 -4°C° 0 mm 2 m/S 605 mmHg 93%
    06:00 -4°C° 0 mm 2 m/S 605 mmHg 93%
    07:00 -3°C° 0 mm 2 m/S 606 mmHg 89%
    08:00 -2°C° 0 mm 2 m/S 606 mmHg 84%
    09:00 +2°C° 0 mm 1 m/S 607 mmHg 80%
    10:00 +3°C° 0 mm 1 m/S 607 mmHg 75%
    11:00 +4°C° 0 mm 1 m/S 608 mmHg 70%
    12:00 +5°C° 0 mm 1 m/S 609 mmHg 66%
    13:00 +6°C° 0 mm 1 m/S 608 mmHg 66%
    14:00 +6°C° 0 mm 1 m/S 608 mmHg 67%
    15:00 +5°C° 0 mm 2 m/S 608 mmHg 67%
    16:00 +4°C° 0 mm 1 m/S 607 mmHg 75%
    17:00 +3°C° 0 mm 1 m/S 607 mmHg 83%
    18:00 +1°C° 0 mm 1 m/S 606 mmHg 91%
    19:00 0°C° 0 mm 1 m/S 606 mmHg 88%
    20:00 0°C° 0 mm 1 m/S 606 mmHg 85%
    21:00 -1°C° 0 mm 1 m/S 607 mmHg 82%
    22:00 -1°C° 0 mm 1 m/S 607 mmHg 83%
    23:00 -1°C° 0 mm 1 m/S 607 mmHg 85%

    4 April, Samstag

    Zeit Temperatur Niederschläge Wind Luftdruck Luftfeuchtigkeit
    00:00 0°C° 0 mm 1 m/S 607 mmHg 86%
    01:00 0°C° 0 mm 1 m/S 607 mmHg 87%
    02:00 -1°C° 0 mm 1 m/S 607 mmHg 87%
    03:00 -1°C° 0 mm 1 m/S 607 mmHg 88%
    04:00 -1°C° 0 mm 1 m/S 607 mmHg 83%
    05:00 -1°C° 0 mm 1 m/S 607 mmHg 79%
    06:00 -1°C° 0 mm 1 m/S 607 mmHg 74%
    07:00 +2°C° 0 mm 1 m/S 608 mmHg 69%
    08:00 +4°C° 0 mm 1 m/S 609 mmHg 64%
    09:00 +7°C° 0 mm 1 m/S 610 mmHg 59%
    10:00 +8°C° 0 mm 1 m/S 611 mmHg 59%
    11:00 +9°C° 0 mm 1 m/S 611 mmHg 58%
    12:00 +9°C° 0 mm 2 m/S 612 mmHg 58%
    13:00 +9°C° 0 mm 2 m/S 611 mmHg 60%
    14:00 +9°C° 0 mm 2 m/S 611 mmHg 61%
    15:00 +9°C° 0 mm 2 m/S 611 mmHg 62%
    16:00 +7°C° 0 mm 2 m/S 610 mmHg 70%
    17:00 +6°C° 0 mm 2 m/S 610 mmHg 78%
    18:00 +4°C° 0 mm 2 m/S 609 mmHg 86%
    19:00 +3°C° 0 mm 2 m/S 609 mmHg 88%
    20:00 +2°C° 0 mm 2 m/S 609 mmHg 91%
    21:00 +1°C° 0 mm 2 m/S 609 mmHg 93%
    22:00 +1°C° 0 mm 2 m/S 609 mmHg 92%
    23:00 +1°C° 0 mm 2 m/S 609 mmHg 91%

    5 April, Sonntag

    Zeit Temperatur Niederschläge Wind Luftdruck Luftfeuchtigkeit
    00:00 -1°C° 0 mm 2 m/S 609 mmHg 90%
    01:00 -1°C° 0 mm 2 m/S 608 mmHg 89%
    02:00 -1°C° 0 mm 2 m/S 608 mmHg 88%
    03:00 -2°C° 0 mm 2 m/S 607 mmHg 86%
    04:00 -2°C° 0 mm 2 m/S 607 mmHg 85%
    05:00 -2°C° 0 mm 2 m/S 608 mmHg 84%
    06:00 -3°C° 0 mm 2 m/S 608 mmHg 83%
    07:00 -1°C° 0 mm 2 m/S 608 mmHg 73%
    08:00 +2°C° 0 mm 2 m/S 609 mmHg 63%
    09:00 +3°C° 0 mm 3 m/S 610 mmHg 53%
    10:00 +5°C° 0 mm 3 m/S 610 mmHg 49%
    11:00 +7°C° 0 mm 3 m/S 611 mmHg 45%
    12:00 +8°C° 0 mm 3 m/S 611 mmHg 42%
    13:00 +8°C° 0 mm 3 m/S 611 mmHg 43%
    14:00 +8°C° 0 mm 3 m/S 610 mmHg 45%
    15:00 +8°C° 0 mm 3 m/S 610 mmHg 47%
    16:00 +5°C° 0 mm 3 m/S 609 mmHg 55%
    17:00 +4°C° 0 mm 3 m/S 609 mmHg 64%
    18:00 +3°C° 0 mm 2 m/S 608 mmHg 72%
    19:00 +2°C° 0 mm 2 m/S 608 mmHg 77%
    20:00 +2°C° 0 mm 2 m/S 608 mmHg 83%
    21:00 +1°C° 0 mm 2 m/S 608 mmHg 88%
    22:00 +1°C° 0 mm 2 m/S 608 mmHg 88%
    23:00 +1°C° 0 mm 2 m/S 608 mmHg 88%

    6 April, Montag

    Zeit Temperatur Niederschläge Wind Luftdruck Luftfeuchtigkeit
    00:00 +1°C° 0 mm 2 m/S 608 mmHg 88%
    01:00 +1°C° 0 mm 2 m/S 608 mmHg 89%
    02:00 +1°C° 0 mm 2 m/S 608 mmHg 89%
    03:00 +1°C° 0 mm 2 m/S 608 mmHg 89%
    04:00 +1°C° 0.1 mm 2 m/S 608 mmHg 90%
    05:00 +1°C° 0.1 mm 2 m/S 608 mmHg 90%
    06:00 +1°C° 0.1 mm 2 m/S 608 mmHg 90%
    07:00 +2°C° 0.3 mm 2 m/S 608 mmHg 89%
    08:00 +2°C° 0.3 mm 2 m/S 609 mmHg 88%
    09:00 +4°C° 0.3 mm 1 m/S 609 mmHg 86%
    10:00 +4°C° 0.1 mm 1 m/S 609 mmHg 87%
    11:00 +4°C° 0.1 mm 1 m/S 610 mmHg 87%
    12:00 +5°C° 0.1 mm 1 m/S 610 mmHg 88%
    13:00 +4°C° 0.2 mm 1 m/S 610 mmHg 90%
    14:00 +4°C° 0.2 mm 1 m/S 610 mmHg 93%
    15:00 +3°C° 0.2 mm 0 m/S 610 mmHg 95%
    16:00 +3°C° 0.1 mm 0 m/S 610 mmHg 95%
    17:00 +3°C° 0.1 mm 0 m/S 610 mmHg 96%
    18:00 +4°C° 0.1 mm 1 m/S 611 mmHg 97%
    19:00 +3°C° 0 mm 0 m/S 611 mmHg 97%
    20:00 +3°C° 0 mm 0 m/S 611 mmHg 98%
    21:00 +2°C° 0 mm 0 m/S 612 mmHg 98%
    22:00 +2°C° 0 mm 0 m/S 612 mmHg 98%
    23:00 +2°C° 0 mm 0 m/S 612 mmHg 97%
    Mehr zeigen